Location: Gleizolles
(44.4833°N, 6.7667°E)
Time: 02:28:50
(UTC+00:00)

SL-4 R/B - Pass Details

Date: 09 April 2020
Orbit: 428 x 666 km, 51.6° (Epoch: 05 June)

Event Time Altitude Azimuth Distance (km) Brightness Sun altitude
Rises 20:42:02 0° 290° (WNW) 2,393 6.4 -24.8°
Reaches altitude 10° 20:44:23 10° 305° (NW) 1,533 5.3 -25.1°
Enters shadow 20:47:12 24° 360° (N) 947 3.6 -25.4°
